Weather in Cheremkhovo

Russia / Zabaykalsky Krai     50°34′46″N   110°09′25″E
temp.,
°C
wind,
m/s
gust,
m/s
humid.,
%
clouds,
%
prec.,
mm/h
press.,
hPa
HPBL,
m
14 april, wed
wed1400:000w41151100 0.0 1013662
03:00−1w41085100 0.1 1014824
06:00−2wnw3888100 0.3 1014715
09:00−1wnw4662100 0.4 10151060
12:000nw4642100 0.0 10151471
15:00+2nw5628100 0.0 10131954
18:00+1nnw5628100 0.0 10122174
21:00−2nw3839100 0.0 1015448
15 april, thu
thu1500:00−4wnw2654100 0.0 1017287
03:00−5w2765100 0.0 1016381
06:00−8w26817 0.0 1016181
09:00−4wnw486497 0.0 1015988
12:00+1wnw5833100 0.1 10102723
15:00+2wnw5729100 0.2 10092490
18:00+2wnw5938100 0.3 10092103
21:00−3w3873100 0.8 1013295
16 april, fri
fri1600:00−4wnw51083100 1.4 1016971
03:00−6wnw498085 1.7 1020675
06:00−7w488968 0.1 1023475
09:00−5wnw486796 0.2 10231067
12:000wnw583690 0.0 10211825
15:00+4wnw583296 0.0 10171909
18:00+5wnw593379 0.0 10161882
21:000w25525 0.0 1018109
17 april, sat
sat1700:00−2sw22720 0.0 102020
03:00−4sw11775 0.0 102019
06:00−5ssw11815 0.0 101914
09:00+2wsw01495 0.0 1016215
12:00+11w25305 0.0 10101220
15:00+14wsw46253 0.0 10062240
18:00+14sw47242 0.0 10032595
21:00+7s22500 0.0 100524
18 april, sun
sun1800:00+4s23570 0.0 100540
03:00+2s12600 0.0 100422
06:00+1s11635 0.0 100412
09:00+6wnw1143100 0.0 1003187
12:00+12w2426100 0.0 1001816
15:00+16w361621 0.0 9992239
18:00+16nnw441792 0.0 10003043
21:00+7nw114927 0.0 100513